Location: Waldport
(44.4270°N, 124.0680°W)
Time: 05:07:30
(UTC-07:00)

Meteor 1-26 Rocket - Visible Passes

Search period start: 27 September 2016 00:00
Search period end: 07 October 2016 00:00
Orbit: 832 x 903 km, 81.3° (Epoch: 26 September)

Date Brightness Start Highest point End Pass type
(mag) Time Alt. Az. Time Alt. Az. Time Alt. Az.
27 Sep 7.0 01:41:25 13° NNE 01:41:25 13° NNE 01:41:55 10° NNE visible
28 Sep 7.1 01:34:41 12° NNE 01:34:41 12° NNE 01:34:59 10° NNE visible
29 Sep 7.2 01:27:56 11° NNE 01:27:56 11° NNE 01:28:02 10° NNE visible
